| time (UTC) | temp F | wind direction | speed MPH | gust MPH | rain 1hr in | rain 24hr in | rain mn in | humidity % | barometer mb |
| 20260507191535 | 66 | 151 | 1.0 | 2.0 | 0.00 | 0.14 | 0.14 | 27 | 1005.7 |
| 20260507191032 | 65 | 19 | 2.0 | 3.0 | 0.00 | 0.14 | 0.14 | 28 | 1006.1 |
| 20260507190529 | 66 | 317 | 1.0 | 2.0 | 0.00 | 0.14 | 0.14 | 27 | 1005.7 |
| 20260507190028 | 66 | 39 | 3.0 | 6.0 | 0.00 | 0.14 | 0.14 | 26 | 1006.1 |
| 20260507185526 | 66 | 358 | 7.0 | 10.0 | 0.00 | 0.14 | 0.14 | 27 | 1006.1 |
| 20260507185022 | 68 | 290 | 5.0 | 10.0 | 0.00 | 0.14 | 0.14 | 27 | 1006.1 |
| 20260507184520 | 67 | 321 | 3.0 | 4.0 | 0.00 | 0.14 | 0.14 | 26 | 1006.1 |
| 20260507184018 | 66 | 71 | 2.0 | 2.0 | 0.00 | 0.14 | 0.14 | 27 | 1006.1 |
| 20260507183513 | 65 | 58 | 2.0 | 3.0 | 0.00 | 0.14 | 0.14 | 29 | 1006.1 |
| 20260507183011 | 66 | 345 | 4.0 | 6.0 | 0.00 | 0.14 | 0.14 | 30 | 1006.1 |
| 20260507182507 | 65 | 211 | 2.0 | 2.0 | 0.00 | 0.14 | 0.14 | 31 | 1006.1 |
| 20260507182003 | 64 | 233 | 3.0 | 4.0 | 0.00 | 0.14 | 0.14 | 31 | 1006.4 |
| 20260507181500 | 66 | 225 | 4.0 | 8.0 | 0.00 | 0.14 | 0.14 | 30 | 1006.4 |
| 20260507180956 | 66 | 207 | 7.0 | 8.0 | 0.00 | 0.14 | 0.14 | 33 | 1006.4 |
| 20260507180453 | 65 | 354 | 4.0 | 6.0 | 0.00 | 0.14 | 0.14 | 34 | 1006.4 |
| 20260507175949 | 65 | 269 | 2.0 | 3.0 | 0.00 | 0.14 | 0.14 | 34 | 1006.4 |
| 20260507175446 | 67 | 349 | 3.0 | 3.0 | 0.00 | 0.14 | 0.14 | 33 | 1006.4 |
| 20260507174944 | 66 | 143 | 0.0 | 1.0 | 0.00 | 0.14 | 0.14 | 33 | 1006.4 |
| 20260507174440 | 65 | 163 | 2.0 | 3.0 | 0.00 | 0.14 | 0.14 | 35 | 1006.1 |
| 20260507173938 | 66 | 251 | 3.0 | 4.0 | 0.00 | 0.14 | 0.14 | 35 | 1006.1 |
| 20260507173435 | 65 | 208 | 2.0 | 2.0 | 0.00 | 0.14 | 0.14 | 35 | 1006.4 |
| 20260507172932 | 65 | 312 | 4.0 | 4.0 | 0.00 | 0.14 | 0.14 | 35 | 1006.4 |
| 20260507172428 | 64 | 191 | 2.0 | 3.0 | 0.00 | 0.14 | 0.14 | 35 | 1006.4 |
| 20260507171924 | 64 | 126 | 2.0 | 4.0 | 0.00 | 0.14 | 0.14 | 35 | 1006.4 |
| 20260507171421 | 65 | 289 | 0.0 | 2.0 | 0.00 | 0.14 | 0.14 | 38 | 1006.7 |
| 20260507170918 | 64 | 340 | 4.0 | 7.0 | 0.00 | 0.14 | 0.14 | 38 | 1006.4 |
| 20260507170415 | 64 | 310 | 3.0 | 4.0 | 0.00 | 0.14 | 0.14 | 40 | 1006.4 |
| 20260507165911 | 63 | 232 | 5.0 | 7.0 | 0.00 | 0.14 | 0.14 | 40 | 1006.7 |
| 20260507165407 | 64 | 257 | 5.0 | 9.0 | 0.00 | 0.14 | 0.14 | 40 | 1006.7 |
| 20260507164903 | 63 | 314 | 9.0 | 13.0 | 0.00 | 0.14 | 0.14 | 40 | 1006.7 |
| 20260507164400 | 62 | 194 | 1.0 | 2.0 | 0.00 | 0.14 | 0.14 | 44 | 1006.7 |
| 20260507163857 | 61 | 276 | 4.0 | 6.0 | 0.00 | 0.14 | 0.14 | 47 | 1007.1 |
| 20260507163354 | 62 | 250 | 6.0 | 9.0 | 0.00 | 0.14 | 0.14 | 47 | 1007.1 |
| 20260507162851 | 64 | 340 | 2.0 | 3.0 | 0.00 | 0.14 | 0.14 | 44 | 1006.7 |
| 20260507162346 | 63 | 207 | 0.0 | 1.0 | 0.00 | 0.14 | 0.14 | 49 | 1006.7 |
| 20260507161844 | 62 | 260 | 4.0 | 4.0 | 0.00 | 0.14 | 0.14 | 49 | 1007.1 |
| 20260507161340 | 62 | 78 | 3.0 | 4.0 | 0.00 | 0.14 | 0.14 | 51 | 1007.1 |
| 20260507160837 | 61 | 19 | 2.0 | 3.0 | 0.00 | 0.14 | 0.14 | 52 | 1007.1 |
| 20260507160332 | 62 | 262 | 2.0 | 3.0 | 0.00 | 0.14 | 0.14 | 51 | 1007.1 |
| 20260507155829 | 62 | 226 | 2.0 | 3.0 | 0.00 | 0.14 | 0.14 | 51 | 1007.4 |
| 20260507155325 | 61 | 48 | 1.0 | 2.0 | 0.00 | 0.14 | 0.14 | 51 | 1007.1 |
| 20260507154822 | 60 | 293 | 6.0 | 10.0 | 0.00 | 0.14 | 0.14 | 53 | 1007.1 |
| 20260507154319 | 60 | 180 | 2.0 | 3.0 | 0.00 | 0.14 | 0.14 | 55 | 1007.8 |
| 20260507153816 | 60 | 149 | 1.0 | 2.0 | 0.00 | 0.14 | 0.14 | 54 | 1007.4 |
| 20260507153312 | 62 | 150 | 1.0 | 2.0 | 0.00 | 0.14 | 0.14 | 53 | 1007.4 |
| 20260507152809 | 61 | 119 | 3.0 | 4.0 | 0.00 | 0.14 | 0.14 | 53 | 1007.4 |
| 20260507152306 | 60 | 128 | 1.0 | 2.0 | 0.00 | 0.14 | 0.14 | 55 | 1007.8 |
| 20260507151801 | 60 | 237 | 3.0 | 4.0 | 0.00 | 0.14 | 0.14 | 56 | 1007.8 |
| 20260507151257 | 61 | 145 | 1.0 | 2.0 | 0.00 | 0.14 | 0.14 | 55 | 1007.4 |
| 20260507150754 | 62 | 128 | 1.0 | 2.0 | 0.00 | 0.14 | 0.14 | 53 | 1007.8 |
| 20260507150251 | 60 | 282 | 2.0 | 2.0 | 0.00 | 0.14 | 0.14 | 56 | 1007.8 |
| 20260507145747 | 61 | 236 | 4.0 | 6.0 | 0.00 | 0.14 | 0.14 | 55 | 1007.8 |
| 20260507145244 | 61 | 104 | 1.0 | 2.0 | 0.00 | 0.14 | 0.14 | 54 | 1007.8 |
| 20260507144741 | 61 | 111 | 1.0 | 1.0 | 0.00 | 0.14 | 0.14 | 53 | 1008.1 |
| 20260507144239 | 60 | 322 | 4.0 | 6.0 | 0.00 | 0.14 | 0.14 | 54 | 1007.8 |
| 20260507143735 | 59 | 330 | 1.0 | 2.0 | 0.00 | 0.14 | 0.14 | 55 | 1008.4 |
| 20260507143232 | 59 | 119 | 0.0 | 0.0 | 0.00 | 0.14 | 0.14 | 57 | 1008.4 |
| 20260507142728 | 59 | 336 | 6.0 | 8.0 | 0.00 | 0.14 | 0.14 | 53 | 1008.1 |
| 20260507142225 | 60 | 114 | 2.0 | 3.0 | 0.00 | 0.14 | 0.14 | 54 | 1007.8 |
| 20260507141721 | 59 | 102 | 1.0 | 2.0 | 0.00 | 0.14 | 0.14 | 55 | 1008.1 |
| 20260507141219 | 59 | 290 | 3.0 | 4.0 | 0.00 | 0.14 | 0.14 | 55 | 1008.1 |
| 20260507140714 | 59 | 139 | 0.0 | 0.0 | 0.00 | 0.14 | 0.14 | 56 | 1008.1 |
| 20260507140212 | 59 | 244 | 2.0 | 3.0 | 0.00 | 0.14 | 0.14 | 56 | 1008.1 |
| 20260507135709 | 59 | 338 | 2.0 | 3.0 | 0.00 | 0.14 | 0.14 | 55 | 1008.1 |
| 20260507135206 | 58 | 119 | 2.0 | 2.0 | 0.00 | 0.14 | 0.14 | 55 | 1008.1 |
| 20260507134702 | 58 | 317 | 1.0 | 2.0 | 0.00 | 0.14 | 0.14 | 57 | 1007.8 |
| 20260507134159 | 57 | 97 | 2.0 | 2.0 | 0.00 | 0.14 | 0.14 | 62 | 1008.1 |
| 20260507133654 | 57 | 67 | 0.0 | 1.0 | 0.00 | 0.14 | 0.14 | 64 | 1008.1 |
| 20260507133152 | 57 | 177 | 4.0 | 6.0 | 0.00 | 0.14 | 0.14 | 64 | 1008.1 |
| 20260507132649 | 57 | 132 | 2.0 | 3.0 | 0.00 | 0.14 | 0.14 | 66 | 1008.1 |
| 20260507132145 | 57 | 7 | 3.0 | 3.0 | 0.00 | 0.14 | 0.14 | 66 | 1008.1 |
| 20260507131643 | 56 | 295 | 2.0 | 3.0 | 0.00 | 0.14 | 0.14 | 68 | 1008.4 |
| 20260507131140 | 56 | 358 | 3.0 | 4.0 | 0.00 | 0.14 | 0.14 | 70 | 1008.4 |
| 20260507130636 | 55 | 118 | 0.0 | 0.0 | 0.00 | 0.14 | 0.14 | 73 | 1008.1 |
| 20260507130134 | 54 | 110 | 1.0 | 2.0 | 0.00 | 0.14 | 0.14 | 75 | 1008.1 |
| 20260507125633 | 54 | 156 | 1.0 | 1.0 | 0.00 | 0.14 | 0.14 | 77 | 1008.4 |
| 20260507125130 | 54 | 19 | 3.0 | 4.0 | 0.00 | 0.14 | 0.14 | 78 | 1008.8 |
| 20260507124626 | 53 | 182 | 3.0 | 4.0 | 0.00 | 0.14 | 0.14 | 78 | 1008.8 |
| 20260507124124 | 54 | 75 | 1.0 | 1.0 | 0.00 | 0.14 | 0.14 | 80 | 1008.4 |
| 20260507123622 | 53 | 87 | 0.0 | 1.0 | 0.00 | 0.14 | 0.14 | 81 | 1008.4 |
| 20260507123119 | 52 | 48 | 0.0 | 1.0 | 0.00 | 0.14 | 0.14 | 84 | 1008.4 |
| 20260507122614 | 51 | 301 | 2.0 | 2.0 | 0.00 | 0.14 | 0.14 | 84 | 1008.4 |
| 20260507122110 | 51 | 144 | 3.0 | 8.0 | 0.05 | 0.14 | 0.14 | 86 | 1008.4 |
| 20260507121606 | 51 | 7 | 0.0 | 0.0 | 0.05 | 0.14 | 0.14 | 87 | 1008.4 |
| 20260507121102 | 51 | 93 | 0.0 | 0.0 | 0.00 | 0.13 | 0.13 | 89 | 1008.4 |
| 20260507120558 | 50 | 132 | 2.0 | 4.0 | 0.00 | 0.13 | 0.13 | 90 | 1008.1 |
| 20260507120055 | 50 | 141 | 0.0 | 0.0 | 0.00 | 0.13 | 0.13 | 91 | 1008.1 |
| 20260507115551 | 50 | 141 | 0.0 | 0.0 | 0.00 | 0.13 | 0.13 | 92 | 1008.1 |
| 20260507115047 | 50 | 139 | 0.0 | 0.0 | 0.00 | 0.13 | 0.13 | 92 | 1008.4 |
| 20260507114543 | 50 | 160 | 0.0 | 0.0 | 0.00 | 0.13 | 0.13 | 93 | 1008.8 |
| 20260507114041 | 49 | 283 | 2.0 | 3.0 | 0.00 | 0.13 | 0.13 | 93 | 1008.4 |
| 20260507113538 | 49 | 169 | 0.0 | 0.0 | 0.00 | 0.13 | 0.13 | 93 | 1008.4 |
| 20260507113035 | 49 | 139 | 0.0 | 0.0 | 0.00 | 0.13 | 0.13 | 94 | 1008.4 |
| 20260507112533 | 49 | 272 | 0.0 | 0.0 | 0.00 | 0.13 | 0.13 | 94 | 1008.1 |
| 20260507112029 | 49 | 159 | 0.0 | 0.0 | 0.00 | 0.13 | 0.13 | 94 | 1008.1 |
| 20260507111526 | 49 | 127 | 0.0 | 0.0 | 0.00 | 0.13 | 0.13 | 94 | 1008.1 |
| 20260507111023 | 49 | 327 | 1.0 | 2.0 | 0.00 | 0.13 | 0.13 | 94 | 1007.8 |
| 20260507110519 | 50 | 229 | 0.0 | 0.0 | 0.00 | 0.13 | 0.13 | 93 | 1008.1 |
| 20260507110016 | 50 | 118 | 0.0 | 0.0 | 0.00 | 0.13 | 0.13 | 93 | 1008.1 |
| 20260507105513 | 49 | 111 | 0.0 | 0.0 | 0.00 | 0.13 | 0.13 | 93 | 1008.1 |
| 20260507105009 | 49 | 340 | 0.0 | 1.0 | 0.00 | 0.13 | 0.13 | 93 | 1008.1 |
| 20260507104507 | 49 | 7 | 0.0 | 0.0 | 0.00 | 0.13 | 0.13 | 93 | 1008.4 |
| 20260507104003 | 50 | 74 | 0.0 | 0.0 | 0.00 | 0.13 | 0.13 | 93 | 1008.1 |
| 20260507103500 | 49 | 85 | 0.0 | 0.0 | 0.00 | 0.13 | 0.13 | 93 | 1008.1 |
| 20260507102955 | 49 | 174 | 1.0 | 1.0 | 0.00 | 0.13 | 0.13 | 93 | 1008.4 |
| 20260507102452 | 49 | 151 | 0.0 | 0.0 | 0.00 | 0.13 | 0.13 | 94 | 1007.8 |
| 20260507101948 | 49 | 139 | 0.0 | 0.0 | 0.00 | 0.13 | 0.13 | 94 | 1007.8 |
| 20260507101443 | 49 | 145 | 0.0 | 0.0 | 0.00 | 0.13 | 0.13 | 94 | 1007.8 |
| 20260507100940 | 49 | 28 | 0.0 | 0.0 | 0.00 | 0.13 | 0.13 | 94 | 1007.8 |
| 20260507100438 | 49 | 151 | 0.0 | 0.0 | 0.07 | 0.13 | 0.13 | 94 | 1007.8 |
| 20260507095936 | 49 | 168 | 0.0 | 0.0 | 0.07 | 0.13 | 0.13 | 94 | 1007.8 |
| 20260507095433 | 49 | 192 | 0.0 | 0.0 | 0.00 | 0.12 | 0.12 | 94 | 1007.8 |
| 20260507094930 | 49 | 160 | 0.0 | 0.0 | 0.05 | 0.12 | 0.12 | 94 | 1007.8 |
| 20260507094426 | 49 | 87 | 0.0 | 0.0 | 0.12 | 0.12 | 0.12 | 94 | 1007.4 |
| 20260507093923 | 50 | 161 | 0.0 | 0.0 | 0.07 | 0.11 | 0.11 | 94 | 1007.8 |
| 20260507093421 | 50 | 191 | 0.0 | 0.0 | 0.05 | 0.10 | 0.10 | 94 | 1007.8 |
| 20260507092920 | 50 | 44 | 0.0 | 0.0 | 0.05 | 0.10 | 0.10 | 94 | 1007.4 |
| 20260507092415 | 50 | 82 | 0.0 | 0.0 | 0.07 | 0.09 | 0.09 | 93 | 1007.4 |
| 20260507091912 | 50 | 136 | 0.0 | 1.0 | 0.19 | 0.09 | 0.09 | 93 | 1007.4 |
| 20260507091408 | 50 | 338 | 1.0 | 2.0 | 0.17 | 0.08 | 0.08 | 93 | 1007.4 |
| 20260507090904 | 50 | 144 | 0.0 | 0.0 | 0.12 | 0.06 | 0.06 | 93 | 1007.8 |
| 20260507090400 | 51 | 358 | 1.0 | 1.0 | 0.07 | 0.05 | 0.05 | 92 | 1007.8 |
| 20260507085857 | 51 | 158 | 1.0 | 2.0 | 0.05 | 0.04 | 0.04 | 92 | 1007.8 |
| 20260507085354 | 51 | 133 | 0.0 | 0.0 | 0.00 | 0.03 | 0.03 | 92 | 1007.8 |
| 20260507084852 | 51 | 303 | 2.0 | 2.0 | 0.00 | 0.03 | 0.03 | 92 | 1007.8 |
| 20260507084348 | 51 | 190 | 0.0 | 0.0 | 0.00 | 0.03 | 0.03 | 92 | 1007.8 |
| 20260507083845 | 51 | 140 | 0.0 | 0.0 | 0.00 | 0.03 | 0.03 | 92 | 1007.4 |
| 20260507083342 | 52 | 131 | 0.0 | 0.0 | 0.00 | 0.03 | 0.03 | 91 | 1007.4 |
| 20260507082838 | 52 | 279 | 0.0 | 1.0 | 0.07 | 0.03 | 0.03 | 91 | 1007.4 |
| 20260507082333 | 52 | 146 | 0.0 | 0.0 | 0.07 | 0.03 | 0.03 | 90 | 1007.4 |
| 20260507081831 | 52 | 32 | 1.0 | 1.0 | 0.07 | 0.02 | 0.02 | 90 | 1007.1 |
| 20260507081327 | 52 | 123 | 0.0 | 0.0 | 0.07 | 0.02 | 0.02 | 89 | 1007.4 |
| 20260507080824 | 53 | 93 | 0.0 | 0.0 | 0.00 | 0.01 | 0.01 | 89 | 1007.4 |
| 20260507080320 | 53 | 151 | 0.0 | 1.0 | 0.00 | 0.01 | 0.01 | 89 | 1007.8 |
| 20260507075815 | 53 | 97 | 2.0 | 2.0 | 0.00 | 0.01 | 0.01 | 90 | 1007.4 |
| 20260507075312 | 53 | 307 | 2.0 | 3.0 | 0.00 | 0.01 | 0.01 | 90 | 1007.1 |
| 20260507074809 | 54 | 124 | 1.0 | 2.0 | 0.00 | 0.01 | 0.01 | 90 | 1006.7 |
| 20260507074306 | 54 | 124 | 1.0 | 1.0 | 0.05 | 0.01 | 0.01 | 89 | 1007.1 |
| 20260507073803 | 55 | 154 | 0.0 | 1.0 | 0.05 | 0.01 | 0.01 | 88 | 1007.1 |
| 20260507073300 | 55 | 188 | 2.0 | 3.0 | 0.00 | 0.00 | 0.00 | 88 | 1007.1 |
| 20260507072757 | 55 | 215 | 2.0 | 3.0 | 0.00 | 0.00 | 0.00 | 88 | 1007.1 |
| 20260507072254 | 55 | 122 | 1.0 | 1.0 | 0.00 | 0.00 | 0.00 | 88 | 1006.1 |
| 20260507071752 | 55 | 326 | 1.0 | 2.0 | 0.00 | 0.00 | 0.00 | 88 | 1006.1 |
| 20260507071248 | 55 | 111 | 1.0 | 1.0 | 0.00 | 0.00 | 0.00 | 88 | 1006.4 |
| 20260507070745 | 55 | 73 | 1.0 | 2.0 | 0.00 | 0.00 | 0.00 | 88 | 1006.7 |
| 20260507070242 | 56 | 322 | 4.0 | 8.0 | 0.00 | 0.00 | 0.00 | 88 | 1006.7 |
| 20260507065738 | 56 | 336 | 2.0 | 2.0 | 0.00 | 0.00 | 0.00 | 87 | 1006.1 |
| 20260507065235 | 56 | 358 | 1.0 | 1.0 | 0.00 | 0.00 | 0.00 | 87 | 1006.1 |
| 20260507064733 | 56 | 103 | 1.0 | 1.0 | 0.00 | 0.00 | 0.00 | 87 | 1006.7 |
| 20260507064232 | 56 | 114 | 0.0 | 1.0 | 0.00 | 0.00 | 0.00 | 86 | 1006.4 |
| 20260507063728 | 56 | 12 | 0.0 | 1.0 | 0.00 | 0.00 | 0.00 | 86 | 1006.7 |
| 20260507063225 | 56 | 285 | 3.0 | 3.0 | 0.00 | 0.00 | 0.00 | 87 | 1006.4 |
| 20260507062722 | 56 | 72 | 2.0 | 2.0 | 0.00 | 0.00 | 0.00 | 86 | 1006.7 |
| 20260507062220 | 56 | 157 | 2.0 | 2.0 | 0.00 | 0.00 | 0.00 | 86 | 1006.7 |
| 20260507061717 | 57 | 61 | 2.0 | 3.0 | 0.00 | 0.00 | 0.00 | 86 | 1006.4 |
| 20260507061215 | 57 | 127 | 0.0 | 1.0 | 0.00 | 0.00 | 0.00 | 87 | 1006.4 |
| 20260507060713 | 57 | 16 | 1.0 | 1.0 | 0.00 | 0.00 | 0.00 | 87 | 1006.1 |
| 20260507060209 | 57 | 346 | 2.0 | 3.0 | 0.00 | 0.00 | 0.00 | 87 | 1006.7 |
| 20260507055705 | 57 | 37 | 2.0 | 4.0 | 0.00 | 0.00 | 0.00 | 87 | 1006.4 |
| 20260507055201 | 57 | 345 | 3.0 | 4.0 | 0.00 | 0.00 | 0.00 | 88 | 1006.7 |
| 20260507054657 | 57 | 148 | 2.0 | 3.0 | 0.00 | 0.00 | 0.00 | 89 | 1006.4 |
| 20260507054154 | 58 | 132 | 0.0 | 1.0 | 0.00 | 0.00 | 0.00 | 90 | 1006.7 |
| 20260507053652 | 58 | 107 | 0.0 | 0.0 | 0.00 | 0.00 | 0.00 | 91 | 1006.7 |
| 20260507053150 | 58 | 146 | 0.0 | 1.0 | 0.00 | 0.00 | 0.00 | 91 | 1006.7 |
| 20260507052648 | 59 | 126 | 0.0 | 0.0 | 0.00 | 0.00 | 0.00 | 90 | 1006.7 |
| 20260507052144 | 59 | 299 | 0.0 | 2.0 | 0.00 | 0.00 | 0.00 | 90 | 1006.7 |
| 20260507051642 | 59 | 176 | 0.0 | 0.0 | 0.00 | 0.00 | 0.00 | 90 | 1006.4 |
| 20260507051138 | 59 | 190 | 0.0 | 0.0 | 0.00 | 0.00 | 0.00 | 90 | 1006.4 |
| 20260507050635 | 59 | 11 | 0.0 | 0.0 | 0.00 | 0.00 | 0.00 | 90 | 1006.4 |
| 20260507050132 | 59 | 272 | 2.0 | 3.0 | 0.00 | 0.00 | 0.00 | 90 | 1006.4 |
| 20260507045629 | 59 | 117 | 0.0 | 1.0 | 0.00 | 0.00 | 0.00 | 91 | 1006.4 |
| 20260507045126 | 59 | 140 | 0.0 | 0.0 | 0.00 | 0.00 | 0.00 | 92 | 1006.4 |
| 20260507044622 | 59 | 99 | 3.0 | 4.0 | 0.00 | 0.00 | 0.00 | 93 | 1006.7 |
| 20260507044119 | 59 | 80 | 0.0 | 1.0 | 0.00 | 0.00 | 0.00 | 94 | 1006.4 |
| 20260507043615 | 59 | 172 | 2.0 | 3.0 | 0.00 | 0.00 | 0.00 | 94 | 1006.1 |
| 20260507043113 | 60 | 163 | 0.0 | 0.0 | 0.00 | 0.00 | 0.00 | 95 | 1006.4 |
| 20260507042609 | 60 | 144 | 0.0 | 0.0 | 0.00 | 0.00 | 0.00 | 95 | 1006.4 |
| 20260507042104 | 60 | 144 | 0.0 | 0.0 | 0.00 | 0.00 | 0.00 | 95 | 1006.4 |
| 20260507041601 | 60 | 266 | 4.0 | 6.0 | 0.00 | 0.00 | 0.00 | 96 | 1006.4 |
| 20260507041058 | 60 | 127 | 0.0 | 0.0 | 0.00 | 0.00 | 0.00 | 96 | 1006.4 |
| 20260507040555 | 60 | 229 | 0.0 | 0.0 | 0.00 | 0.00 | 0.00 | 96 | 1006.7 |
| 20260507040051 | 60 | 175 | 1.0 | 3.0 | 0.00 | 0.07 | 0.07 | 96 | 1006.7 |
| 20260507035547 | 60 | 278 | 5.0 | 7.0 | 0.00 | 0.07 | 0.07 | 95 | 1006.7 |
| 20260507035043 | 60 | 274 | 1.0 | 2.0 | 0.00 | 0.07 | 0.07 | 95 | 1006.7 |
| 20260507034540 | 60 | 265 | 2.0 | 2.0 | 0.00 | 0.07 | 0.07 | 95 | 1006.4 |
| 20260507034038 | 60 | 159 | 0.0 | 0.0 | 0.00 | 0.07 | 0.07 | 95 | 1006.4 |
| 20260507033536 | 60 | 140 | 0.0 | 0.0 | 0.00 | 0.07 | 0.07 | 94 | 1006.1 |
| 20260507033033 | 60 | 146 | 0.0 | 0.0 | 0.00 | 0.07 | 0.07 | 94 | 1006.4 |
| 20260507032530 | 60 | 170 | 0.0 | 0.0 | 0.00 | 0.07 | 0.07 | 94 | 1006.4 |
| 20260507032026 | 60 | 148 | 0.0 | 0.0 | 0.00 | 0.07 | 0.07 | 94 | 1006.4 |
| 20260507031522 | 60 | 199 | 2.0 | 2.0 | 0.00 | 0.07 | 0.07 | 94 | 1006.1 |
| 20260507031020 | 60 | 220 | 4.0 | 7.0 | 0.00 | 0.07 | 0.07 | 94 | 1006.1 |
| 20260507030516 | 60 | 189 | 2.0 | 3.0 | 0.00 | 0.07 | 0.07 | 94 | 1006.1 |
| 20260507030014 | 60 | 207 | 1.0 | 2.0 | 0.00 | 0.07 | 0.07 | 94 | 1006.1 |
| 20260507025511 | 60 | 152 | 3.0 | 4.0 | 0.00 | 0.07 | 0.07 | 94 | 1005.7 |
| 20260507025009 | 60 | 219 | 2.0 | 3.0 | 0.00 | 0.07 | 0.07 | 94 | 1005.7 |
| 20260507024506 | 60 | 208 | 2.0 | 2.0 | 0.00 | 0.07 | 0.07 | 94 | 1006.1 |
| 20260507024002 | 60 | 211 | 2.0 | 3.0 | 0.00 | 0.07 | 0.07 | 94 | 1006.1 |
| 20260507023458 | 60 | 216 | 2.0 | 3.0 | 0.00 | 0.07 | 0.07 | 94 | 1006.1 |
| 20260507022956 | 59 | 200 | 2.0 | 2.0 | 0.00 | 0.07 | 0.07 | 94 | 1006.1 |
| 20260507022453 | 59 | 172 | 2.0 | 2.0 | 0.00 | 0.07 | 0.07 | 94 | 1006.4 |
| 20260507021948 | 59 | 198 | 3.0 | 3.0 | 0.00 | 0.07 | 0.07 | 94 | 1006.1 |
| 20260507021444 | 59 | 174 | 5.0 | 6.0 | 0.00 | 0.07 | 0.07 | 94 | 1006.1 |
| 20260507020941 | 59 | 150 | 3.0 | 3.0 | 0.00 | 0.07 | 0.07 | 94 | 1006.1 |
| 20260507020438 | 59 | 133 | 2.0 | 3.0 | 0.00 | 0.07 | 0.07 | 94 | 1006.1 |
| 20260507015935 | 59 | 142 | 3.0 | 3.0 | 0.00 | 0.07 | 0.07 | 94 | 1005.7 |
| 20260507015434 | 59 | 198 | 4.0 | 4.0 | 0.00 | 0.07 | 0.07 | 94 | 1006.1 |
| 20260507014930 | 59 | 217 | 7.0 | 8.0 | 0.00 | 0.07 | 0.07 | 95 | 1006.1 |
| 20260507014427 | 59 | 206 | 4.0 | 7.0 | 0.00 | 0.07 | 0.07 | 95 | 1006.1 |
| 20260507013923 | 59 | 158 | 1.0 | 2.0 | 0.00 | 0.07 | 0.07 | 95 | 1006.4 |
| 20260507013420 | 59 | 196 | 3.0 | 4.0 | 0.00 | 0.07 | 0.07 | 95 | 1006.1 |
| 20260507012918 | 59 | 176 | 5.0 | 6.0 | 0.00 | 0.07 | 0.07 | 95 | 1006.1 |
| 20260507012414 | 59 | 94 | 3.0 | 4.0 | 0.00 | 0.07 | 0.07 | 95 | 1006.4 |
| 20260507011911 | 59 | 143 | 5.0 | 7.0 | 0.00 | 0.07 | 0.07 | 95 | 1006.4 |
| 20260507011408 | 59 | 178 | 4.0 | 6.0 | 0.00 | 0.07 | 0.07 | 95 | 1006.4 |
| 20260507010908 | 59 | 238 | 3.0 | 6.0 | 0.00 | 0.07 | 0.07 | 95 | 1006.4 |
| 20260507010403 | 58 | 190 | 6.0 | 7.0 | 0.00 | 0.07 | 0.07 | 95 | 1006.7 |
| 20260507005901 | 58 | 212 | 3.0 | 4.0 | 0.00 | 0.07 | 0.07 | 95 | 1006.7 |
| 20260507005357 | 58 | 139 | 4.0 | 6.0 | 0.00 | 0.07 | 0.07 | 95 | 1006.7 |
| 20260507004854 | 58 | 211 | 5.0 | 6.0 | 0.00 | 0.07 | 0.07 | 95 | 1006.7 |
| 20260507004351 | 58 | 175 | 1.0 | 2.0 | 0.00 | 0.07 | 0.07 | 95 | 1006.4 |
| 20260507003850 | 58 | 161 | 6.0 | 9.0 | 0.00 | 0.07 | 0.07 | 95 | 1006.4 |
| 20260507003344 | 58 | 147 | 2.0 | 3.0 | 0.00 | 0.07 | 0.07 | 96 | 1006.4 |
| 20260507002839 | 58 | 159 | 3.0 | 3.0 | 0.00 | 0.07 | 0.07 | 96 | 1006.7 |
| 20260507002335 | 58 | 180 | 4.0 | 4.0 | 0.00 | 0.07 | 0.07 | 96 | 1006.7 |
| 20260507001833 | 58 | 178 | 7.0 | 9.0 | 0.00 | 0.07 | 0.07 | 96 | 1006.4 |
| 20260507001329 | 58 | 180 | 3.0 | 4.0 | 0.00 | 0.07 | 0.07 | 96 | 1006.4 |
| 20260507000826 | 58 | 219 | 2.0 | 3.0 | 0.00 | 0.07 | 0.07 | 96 | 1006.1 |
| 20260507000321 | 58 | 124 | 5.0 | 8.0 | 0.00 | 0.07 | 0.07 | 96 | 1006.1 |
| 20260506235818 | 58 | 223 | 4.0 | 7.0 | 0.07 | 0.07 | 0.07 | 96 | 1006.1 |
| 20260506235314 | 59 | 224 | 3.0 | 6.0 | 0.07 | 0.07 | 0.07 | 95 | 1006.1 |
| 20260506234811 | 59 | 211 | 3.0 | 3.0 | 0.00 | 0.06 | 0.06 | 95 | 1006.4 |
| 20260506234309 | 59 | 164 | 7.0 | 9.0 | 0.00 | 0.06 | 0.06 | 95 | 1006.4 |
| 20260506233806 | 59 | 167 | 4.0 | 6.0 | 0.05 | 0.06 | 0.06 | 95 | 1006.1 |
| 20260506233302 | 59 | 191 | 5.0 | 10.0 | 0.05 | 0.06 | 0.06 | 95 | 1006.1 |
| 20260506232759 | 59 | 199 | 3.0 | 3.0 | 0.07 | 0.05 | 0.05 | 95 | 1006.1 |
| 20260506232254 | 59 | 195 | 3.0 | 3.0 | 0.07 | 0.05 | 0.05 | 95 | 1006.1 |
| 20260506231751 | 59 | 172 | 8.0 | 9.0 | 0.00 | 0.04 | 0.04 | 94 | 1006.1 |
| 20260506231250 | 60 | 190 | 8.0 | 10.0 | 0.00 | 0.04 | 0.04 | 94 | 1006.1 |
| 20260506230746 | 60 | 154 | 2.0 | 2.0 | 0.00 | 0.04 | 0.04 | 93 | 1006.1 |
| 20260506230243 | 60 | 227 | 5.0 | 6.0 | 0.00 | 0.04 | 0.04 | 93 | 1006.1 |
| 20260506225739 | 60 | 149 | 3.0 | 4.0 | 0.00 | 0.04 | 0.04 | 93 | 1006.1 |
| 20260506225237 | 60 | 217 | 5.0 | 6.0 | 0.00 | 0.04 | 0.04 | 93 | 1006.4 |
| 20260506224733 | 60 | 167 | 5.0 | 7.0 | 0.00 | 0.04 | 0.04 | 94 | 1006.1 |
| 20260506224230 | 60 | 150 | 4.0 | 6.0 | 0.00 | 0.04 | 0.04 | 94 | 1006.4 |
| 20260506223726 | 60 | 197 | 4.0 | 6.0 | 0.00 | 0.04 | 0.04 | 94 | 1006.1 |
| 20260506223222 | 60 | 233 | 5.0 | 8.0 | 0.00 | 0.04 | 0.04 | 94 | 1006.4 |
| 20260506222719 | 60 | 165 | 2.0 | 3.0 | 0.00 | 0.04 | 0.04 | 94 | 1006.4 |
| 20260506222214 | 60 | 166 | 4.0 | 6.0 | 0.00 | 0.04 | 0.04 | 94 | 1006.7 |
| 20260506221713 | 60 | 171 | 6.0 | 8.0 | 0.00 | 0.04 | 0.04 | 95 | 1006.7 |
| 20260506221211 | 60 | 199 | 4.0 | 4.0 | 0.00 | 0.04 | 0.04 | 94 | 1006.7 |
| 20260506220708 | 60 | 198 | 5.0 | 6.0 | 0.00 | 0.04 | 0.04 | 94 | 1006.7 |
| 20260506220202 | 61 | 197 | 5.0 | 8.0 | 0.00 | 0.04 | 0.04 | 94 | 1006.7 |
| 20260506215659 | 61 | 177 | 2.0 | 2.0 | 0.05 | 0.04 | 0.04 | 93 | 1006.7 |
| 20260506215154 | 61 | 189 | 4.0 | 6.0 | 0.00 | 0.03 | 0.03 | 93 | 1006.7 |
| 20260506214652 | 61 | 209 | 3.0 | 3.0 | 0.00 | 0.03 | 0.03 | 92 | 1006.7 |
| 20260506214149 | 62 | 149 | 5.0 | 8.0 | 0.07 | 0.03 | 0.03 | 91 | 1006.7 |
| 20260506213647 | 62 | 231 | 4.0 | 6.0 | 0.07 | 0.03 | 0.03 | 89 | 1007.1 |
| 20260506213144 | 62 | 189 | 3.0 | 4.0 | 0.00 | 0.02 | 0.02 | 88 | 1007.1 |
| 20260506212642 | 62 | 148 | 2.0 | 4.0 | 0.00 | 0.02 | 0.02 | 88 | 1006.7 |
| 20260506212136 | 62 | 148 | 6.0 | 9.0 | 0.00 | 0.02 | 0.02 | 87 | 1007.1 |
| 20260506211632 | 62 | 159 | 2.0 | 2.0 | 0.00 | 0.02 | 0.02 | 87 | 1006.7 |
| 20260506211129 | 62 | 200 | 6.0 | 8.0 | 0.00 | 0.02 | 0.02 | 87 | 1007.1 |
| 20260506210626 | 62 | 169 | 4.0 | 4.0 | 0.00 | 0.02 | 0.02 | 86 | 1007.1 |
| 20260506210122 | 62 | 222 | 7.0 | 10.0 | 0.00 | 0.02 | 0.02 | 87 | 1007.1 |
| 20260506205620 | 62 | 160 | 5.0 | 8.0 | 0.00 | 0.02 | 0.02 | 87 | 1007.1 |
| 20260506205114 | 62 | 223 | 7.0 | 10.0 | 0.00 | 0.02 | 0.02 | 86 | 1007.1 |
| 20260506204613 | 62 | 188 | 9.0 | 10.0 | 0.00 | 0.02 | 0.02 | 86 | 1007.4 |
| 20260506204109 | 62 | 218 | 4.0 | 6.0 | 0.00 | 0.02 | 0.02 | 87 | 1007.4 |
| 20260506203608 | 63 | 182 | 4.0 | 4.0 | 0.00 | 0.02 | 0.02 | 85 | 1007.4 |
| 20260506203104 | 63 | 165 | 7.0 | 9.0 | 0.00 | 0.02 | 0.02 | 83 | 1007.1 |
| 20260506202602 | 63 | 176 | 9.0 | 15.0 | 0.00 | 0.02 | 0.02 | 83 | 1007.1 |
| 20260506202058 | 63 | 241 | 2.0 | 4.0 | 0.00 | 0.02 | 0.02 | 82 | 1007.4 |
| 20260506201555 | 63 | 212 | 8.0 | 11.0 | 0.00 | 0.02 | 0.02 | 82 | 1007.1 |
| 20260506201052 | 63 | 197 | 8.0 | 13.0 | 0.00 | 0.02 | 0.02 | 83 | 1007.1 |
| 20260506200548 | 63 | 148 | 8.0 | 13.0 | 0.00 | 0.02 | 0.02 | 83 | 1007.1 |
| 20260506200045 | 63 | 188 | 5.0 | 7.0 | 0.05 | 0.02 | 0.02 | 82 | 1007.1 |
| 20260506195541 | 64 | 189 | 6.0 | 8.0 | 0.00 | 0.01 | 0.01 | 82 | 1006.7 |
| 20260506195038 | 64 | 173 | 6.0 | 8.0 | 0.00 | 0.01 | 0.01 | 82 | 1007.1 |
| 20260506194536 | 64 | 190 | 6.0 | 8.0 | 0.00 | 0.01 | 0.01 | 81 | 1007.1 |
| 20260506194032 | 65 | 232 | 6.0 | 8.0 | 0.07 | 0.01 | 0.01 | 80 | 1007.4 |
| 20260506193529 | 65 | 189 | 4.0 | 4.0 | 0.07 | 0.01 | 0.01 | 79 | 1007.4 |
| 20260506193026 | 65 | 92 | 4.0 | 7.0 | 0.00 | 0.00 | 0.00 | 77 | 1007.4 |
| 20260506192523 | 66 | 150 | 2.0 | 2.0 | 0.00 | 0.00 | 0.00 | 76 | 1007.4 |
| 20260506192019 | 66 | 285 | 5.0 | 8.0 | 0.00 | 0.00 | 0.00 | 75 | 1007.4 |